Temp
22 25 24 27 27 27 27 27 27 27 29 29 29 29 29 26 25 25 25 24 24 24 24 23 24 24 24 24 24 24 24 23 23 23 22 21 21 21 21 21 21 20 20 20
25 25 27 27 27 27 26 27 28 28 28 28 28 29 29 27 27 26 26 25 25 25 24 24 25 24 24 25 25 24 24 24 24 23 23 22 22 22 21 21 21 21 20 20
25 27 26 27 27 27 27 27 27 29 28 28 28 29 29 29 27 26 26 26 26 26 26 26 27 26 26 26 26 25 25 25 25 24 23 23 22 22 22 22 22 22 22 22
26 27 27 28 28 28 28 28 28 28 28 30 28 30 29 30 29 28 27 27 26 26 26 27 28 28 27 27 27 26 26 26 26 25 24 24 24 23 24 24 24 24 23 23
28 27 27 28 28 28 29 29 28 28 28 28 28 30 32 27 30 30 30 29 28 27 27 27 29 29 29 28 28 27 27 26 26 26 25 25 24 25 25 25 25 24 24 23
26 26 27 29 29 29 29 29 28 28 30 30 27 30 32 31 31 32 32 30 30 28 28 30 29 29 29 29 29 28 27 27 26 26 26 25 25 25 24 24 24 24 24 23
27 28 28 28 29 29 29 30 30 30 30 30 27 28 32 30 30 30 31 31 30 28 28 28 28 27 28 28 28 28 28 27 27 26 26 26 26 25 25 24 24 24 24 24
27 29 28 29 30 31 30 32 31 29 30 30 26 29 31 28 27 27 27 26 26 28 27 26 27 27 27 27 27 26 26 26 26 26 25 25 25 24 24 24 24 23 23 22
27 28 29 30 31 31 29 30 29 29 25 29 29 29 29 29 29 26 27 26 25 24 24 24 25 27 27 26 26 25 25 24 24 23 24 23 23 23 23 22 22 22 21 21
27 28 29 30 30 29 31 28 31 29 28 29 29 28 31 30 28 26 26 25 23 23 22 22 25 25 25 25 24 24 24 23 22 22 22 22 22 22 21 20 20 19 19 19
27 28 29 28 30 32 29 30 27 29 28 31 30 31 27 27 26 26 24 23 23 22 21 21 23 25 25 25 25 24 23 22 22 22 22 22 22 22 21 20 19 19 19 19
27 28 29 31 29 29 30 30 31 32 28 26 28 31 26 25 24 24 23 22 22 22 22 24 25 25 24 23 23 22 22 22 22 21 21 21 21 20 19 19 19 19 20 20
24 26 29 31 31 29 30 28 28 29 29 28 31 31 25 24 24 23 23 22 22 24 25 25 24 24 23 22 22 22 22 22 22 22 21 20 20 19 19 18 19 19 19 19
26 27 29 30 30 29 30 29 28 30 31 29 31 28 25 25 25 24 23 22 22 23 23 23 23 22 22 22 22 22 22 21 21 21 20 20 19 19 19 18 18 18 18 18
26 28 27 28 28 28 28 28 29 30 29 32 30 29 27 25 25 24 23 22 22 21 22 22 22 22 21 21 21 21 20 20 20 20 19 19 19 18 18 18 17 17 17 17
24 25 24 27 28 29 28 27 27 27 26 26 26 27 26 24 23 23 22 22 22 21 21 21 21 21 21 20 20 19 19 19 19 18 18 18 18 18 17 17 17 16 16 15
26 28 25 27 25 28 29 27 27 26 25 27 28 28 24 24 24 23 22 22 22 21 20 21 20 20 20 19 19 19 18 18 17 17 17 17 17 17 17 17 16 16 16 16
26 26 25 28 26 28 27 25 25 27 25 25 25 24 25 24 23 22 21 22 21 20 20 20 20 19 19 19 19 18 18 17 17 17 16 16 16 16 16 16 16 15 15 15
26 26 25 27 28 26 26 26 26 28 27 25 25 24 22 21 22 21 21 21 20 20 20 20 20 19 19 18 18 17 18 17 17 16 15 15 14 14 14 15 15 15 15 15
25 25 28 24 27 27 27 26 25 27 28 24 24 24 23 22 24 25 20 20 20 20 20 20 19 19 18 18 18 17 17 16 15 15 14 14 14 14 14 14 14 15 14 15
26 25 27 25 28 27 25 24 24 27 27 23 23 23 22 24 23 21 20 20 20 20 19 19 18 18 17 17 17 16 16 15 15 14 14 14 13 13 13 13 13 14 14 14
27 27 26 24 27 28 22 25 27 24 21 22 22 22 22 21 20 20 21 20 19 19 18 18 18 17 17 16 16 15 14 14 14 14 14 14 13 11 12 12 12 13 13 13
26 25 27 25 26 21 20 21 22 21 22 21 22 22 22 21 20 20 20 19 19 18 18 17 17 17 16 15 14 14 13 13 13 14 14 13 12 11 12 11 11 12 12 11
23 20 24 22 22 22 21 20 21 22 23 23 23 22 21 20 21 20 20 19 18 17 17 17 16 16 15 14 13 12 12 13 13 13 12 11 11 10 10 11 11 11 11 11
24 22 22 21 21 21 21 21 22 23 23 22 21 21 21 20 20 19 18 18 17 17 16 16 15 14 13 13 12 12 12 12 12 12 11 9 9 10 11 11 11 11 11 10
22 24 26 28 23 24 23 21 22 22 21 21 21 20 20 19 19 18 18 17 16 16 16 15 14 13 12 11 11 11 11 11 11 11 10 8 8 9 11 11 12 12 10 11
Height
1509 1510 1513 1504 1504 1504 1507 1511 1513 1506 1502 1504 1504 1505 1506 1512 1516 1517 1520 1522 1523 1524 1525 1527 1527 1529 1530 1531 1532 1534 1536 1537 1540 1542 1544 1545 1546 1547 1548 1550 1552 1553 1554 1555
1510 1510 1503 1501 1503 1505 1507 1510 1509 1504 1500 1503 1504 1505 1503 1508 1508 1511 1516 1518 1519 1520 1522 1522 1523 1524 1525 1525 1527 1530 1531 1533 1536 1538 1541 1542 1543 1545 1546 1546 1547 1548 1549 1549
1510 1502 1501 1502 1503 1506 1505 1508 1507 1505 1504 1503 1505 1505 1504 1502 1506 1509 1511 1514 1515 1515 1516 1517 1518 1518 1519 1521 1523 1525 1527 1530 1532 1535 1537 1538 1539 1540 1540 1539 1539 1539 1541 1542
1503 1498 1499 1500 1500 1500 1507 1495 1498 1503 1508 1513 1507 1520 1507 1500 1502 1504 1506 1507 1507 1509 1510 1510 1511 1512 1516 1517 1521 1523 1524 1526 1529 1531 1532 1532 1533 1534 1534 1535 1535 1534 1535 1535
1501 1497 1497 1498 1496 1496 1498 1492 1497 1501 1508 1511 1513 1513 1499 1504 1501 1497 1497 1499 1500 1501 1503 1504 1504 1508 1512 1514 1516 1518 1520 1522 1524 1525 1527 1528 1527 1528 1529 1528 1528 1528 1528 1529
1497 1497 1495 1492 1491 1493 1495 1498 1500 1504 1504 1520 1519 1512 1502 1501 1497 1492 1493 1495 1494 1497 1497 1498 1501 1505 1507 1509 1512 1514 1516 1519 1522 1522 1522 1522 1523 1523 1523 1521 1521 1519 1519 1520
1497 1491 1490 1491 1495 1492 1495 1498 1515 1521 1519 1521 1517 1518 1499 1494 1495 1494 1492 1494 1495 1496 1496 1496 1498 1502 1504 1506 1508 1510 1511 1513 1515 1516 1515 1514 1514 1514 1514 1513 1512 1511 1510 1510
1508 1505 1488 1485 1485 1485 1491 1490 1504 1532 1523 1517 1520 1517 1499 1496 1496 1492 1494 1494 1494 1492 1493 1494 1496 1497 1498 1500 1502 1505 1506 1508 1509 1509 1509 1509 1508 1507 1505 1504 1503 1502 1501 1501
1506 1500 1483 1481 1480 1482 1492 1496 1494 1509 1525 1520 1513 1503 1494 1493 1495 1495 1494 1494 1495 1494 1494 1494 1494 1495 1496 1497 1499 1500 1502 1503 1503 1503 1503 1502 1501 1500 1498 1497 1496 1494 1493 1492
1493 1503 1484 1481 1481 1485 1483 1490 1500 1505 1531 1531 1518 1516 1500 1495 1496 1498 1497 1497 1498 1498 1498 1498 1496 1496 1498 1500 1500 1501 1501 1501 1501 1500 1500 1498 1496 1494 1492 1491 1489 1488 1487 1487
1489 1493 1487 1483 1481 1480 1490 1491 1501 1501 1510 1512 1519 1505 1496 1498 1501 1501 1502 1501 1501 1502 1503 1501 1500 1500 1501 1501 1502 1502 1502 1503 1502 1501 1499 1497 1495 1492 1489 1487 1485 1483 1482 1481
1487 1488 1493 1480 1476 1476 1478 1482 1481 1494 1515 1516 1510 1501 1497 1499 1501 1503 1504 1503 1503 1503 1502 1502 1502 1502 1503 1503 1503 1503 1503 1503 1502 1499 1497 1494 1491 1489 1487 1485 1482 1480 1476 1473
1488 1492 1494 1485 1477 1478 1480 1484 1485 1487 1492 1507 1503 1499 1497 1501 1502 1504 1505 1504 1503 1503 1502 1504 1505 1505 1506 1506 1505 1505 1504 1503 1502 1498 1496 1493 1491 1488 1485 1482 1479 1475 1471 1467
1482 1484 1481 1491 1486 1482 1485 1483 1485 1483 1491 1498 1490 1495 1499 1500 1501 1503 1504 1502 1503 1504 1505 1506 1507 1508 1508 1507 1507 1507 1506 1503 1500 1497 1494 1491 1488 1485 1481 1477 1474 1469 1466 1462
1480 1485 1484 1481 1480 1482 1484 1484 1483 1484 1485 1484 1486 1489 1492 1497 1500 1501 1503 1504 1505 1506 1507 1508 1508 1508 1508 1508 1507 1507 1504 1501 1498 1495 1492 1489 1484 1480 1476 1472 1468 1464 1461 1457
1479 1489 1490 1490 1480 1478 1486 1486 1485 1486 1489 1491 1491 1494 1493 1500 1501 1503 1504 1505 1506 1508 1509 1509 1510 1509 1508 1507 1506 1504 1502 1499 1496 1493 1489 1485 1481 1476 1472 1467 1463 1458 1454 1451
1476 1475 1495 1496 1488 1486 1491 1485 1485 1486 1487 1486 1490 1485 1494 1499 1502 1504 1505 1506 1507 1509 1509 1509 1509 1508 1507 1505 1503 1501 1499 1496 1493 1489 1485 1480 1475 1469 1465 1460 1456 1452 1448 1444
1472 1481 1495 1493 1497 1512 1485 1484 1483 1484 1487 1486 1487 1489 1492 1496 1501 1503 1506 1508 1508 1509 1509 1508 1507 1507 1505 1503 1501 1499 1496 1493 1489 1484 1479 1474 1468 1463 1458 1453 1449 1445 1441 1437
1471 1477 1495 1499 1496 1492 1484 1482 1482 1481 1485 1485 1487 1491 1496 1499 1502 1504 1505 1506 1508 1508 1507 1506 1505 1504 1502 1500 1498 1495 1492 1488 1484 1479 1474 1468 1462 1457 1452 1448 1443 1439 1434 1430
1471 1475 1476 1495 1492 1499 1477 1476 1478 1479 1486 1485 1488 1492 1496 1499 1501 1500 1504 1506 1507 1506 1506 1505 1504 1503 1500 1498 1495 1491 1487 1482 1478 1473 1469 1464 1459 1453 1448 1443 1438 1433 1428 1423
1474 1478 1480 1485 1481 1479 1476 1478 1479 1491 1490 1486 1490 1493 1496 1498 1500 1501 1504 1505 1506 1505 1505 1504 1503 1501 1499 1495 1491 1486 1482 1477 1473 1468 1464 1459 1454 1449 1444 1439 1433 1428 1422 1417
1471 1473 1479 1485 1482 1487 1478 1478 1481 1480 1483 1486 1490 1493 1496 1497 1499 1501 1503 1504 1503 1503 1503 1503 1502 1500 1496 1491 1486 1482 1477 1473 1469 1464 1459 1454 1449 1446 1440 1435 1430 1424 1418 1412
1477 1472 1471 1477 1476 1480 1477 1479 1479 1480 1482 1487 1489 1493 1495 1497 1499 1500 1501 1501 1502 1502 1502 1501 1499 1496 1492 1487 1482 1478 1474 1469 1464 1460 1455 1450 1446 1441 1435 1430 1425 1421 1415 1410
1474 1477 1474 1479 1479 1477 1480 1481 1481 1482 1484 1487 1490 1492 1495 1497 1498 1499 1499 1500 1501 1501 1500 1498 1496 1492 1488 1484 1479 1475 1471 1466 1461 1456 1451 1447 1442 1437 1432 1428 1424 1419 1414 1408
1468 1474 1475 1477 1477 1479 1479 1480 1482 1483 1486 1488 1490 1492 1494 1496 1497 1498 1499 1500 1500 1499 1497 1495 1492 1489 1485 1481 1478 1474 1469 1464 1459 1454 1449 1446 1441 1436 1430 1427 1423 1418 1414 1408
1466 1465 1465 1463 1464 1467 1472 1478 1481 1483 1486 1488 1489 1492 1494 1495 1496 1497 1498 1498 1497 1496 1495 1493 1490 1486 1483 1480 1477 1473 1468 1463 1458 1453 1448 1444 1439 1435 1430 1425 1420 1418 1412 1406
Wind_Speed
2 2 3 5 3 7 6 1 1 3 4 3 7 7 5 16 16 16 16 18 21 23 19 21 23 24 26 28 29 27 27 27 28 28 29 29 30 29 29 29 28 28 27 25
1 6 3 5 8 3 1 2 3 3 4 8 2 2 3 13 17 19 18 19 21 21 21 23 25 28 30 30 29 29 29 28 29 30 30 31 31 31 30 30 28 27 29 28
5 1 3 7 5 3 3 5 4 2 4 1 2 2 3 5 12 10 18 19 20 22 22 22 23 26 27 29 28 27 26 26 26 28 30 32 33 33 31 28 26 24 22 23
5 2 5 6 5 4 3 6 3 7 6 1 4 2 3 5 6 11 17 19 23 24 25 27 25 24 24 26 25 25 23 22 21 23 27 26 28 29 26 25 25 24 23 23
2 3 3 5 4 7 2 1 9 5 4 2 2 3 2 0 7 12 13 18 20 22 23 24 25 24 20 22 23 24 24 22 22 25 27 30 31 30 28 30 29 29 29 28
5 2 4 5 4 11 10 6 8 5 2 2 1 3 2 3 5 6 13 16 19 19 21 22 23 22 23 23 24 24 25 24 25 27 29 32 34 34 36 37 36 36 36 34
4 4 3 6 6 6 8 5 2 3 3 1 4 4 2 5 8 11 13 10 11 12 16 19 19 18 23 26 27 27 28 29 29 29 32 34 36 38 41 42 44 44 44 42
3 4 7 9 7 5 11 4 3 1 0 3 3 4 2 3 8 6 3 7 7 6 4 4 5 7 9 12 16 19 23 25 28 32 35 37 39 41 43 45 46 47 49 48
4 4 2 7 3 1 4 3 3 5 2 3 0 2 6 1 9 14 14 15 17 17 16 14 13 13 11 8 5 5 7 10 13 17 20 23 25 28 30 33 36 41 43 43
5 4 3 2 3 5 3 8 3 1 4 3 2 4 2 3 10 9 12 17 18 20 21 22 24 23 21 19 17 15 14 12 9 8 8 9 11 13 15 18 21 24 26 30
6 3 1 2 5 7 4 4 5 4 2 2 3 3 1 7 5 3 8 13 16 18 20 21 25 26 25 23 21 20 18 15 12 10 13 13 13 11 11 14 15 16 22 29
4 3 4 1 1 2 1 3 5 3 4 1 2 1 3 1 6 8 9 11 15 18 21 23 23 23 22 22 21 21 22 23 23 23 23 23 20 15 13 17 22 27 30 31
8 4 3 5 5 4 1 3 3 6 3 5 2 2 4 7 10 9 10 11 15 18 20 20 20 20 20 19 19 20 22 23 24 25 23 20 17 17 17 19 21 23 24 27
10 4 2 1 1 1 2 4 6 1 3 6 5 6 9 8 8 9 10 12 13 15 17 17 17 16 15 15 15 17 20 22 24 24 24 25 22 21 23 24 25 27 28 27
2 2 1 4 5 3 1 1 6 4 0 4 2 9 15 11 8 9 8 9 9 10 11 11 12 11 11 13 15 17 17 19 21 21 22 25 26 24 28 29 28 27 28 27
1 1 5 3 2 5 3 2 6 4 5 3 5 5 7 9 7 9 9 7 7 7 8 8 7 9 11 13 13 15 16 18 19 19 23 25 25 26 29 29 30 30 29 28
2 4 1 3 5 2 2 1 1 2 2 5 5 4 13 8 9 9 8 7 7 6 5 4 5 9 10 13 16 17 19 20 23 25 28 30 31 32 32 31 31 31 32 33
9 5 3 3 1 5 2 1 6 2 3 4 4 13 16 14 8 8 7 8 8 6 3 1 6 8 12 16 19 20 20 23 26 31 33 33 32 31 29 29 29 28 29 31
3 6 3 4 6 2 3 4 5 2 2 6 10 12 12 11 9 4 8 8 7 4 1 3 8 13 16 19 20 22 26 30 31 31 32 33 31 30 29 28 28 30 31 32
6 3 4 4 3 5 1 2 3 3 3 11 13 16 15 12 4 3 11 8 6 3 4 7 11 14 15 17 22 27 30 32 29 30 30 30 27 28 28 28 29 31 31 33
5 3 5 3 2 1 1 1 2 3 3 13 15 14 15 5 1 7 12 8 5 5 6 8 9 11 17 22 27 29 30 27 30 31 32 30 27 27 26 28 28 28 28 29
1 4 3 2 2 3 2 3 3 3 8 12 12 11 9 8 10 10 8 7 5 4 2 5 11 16 21 26 28 28 27 29 30 32 30 30 28 26 24 24 24 24 24 27
1 1 1 2 2 2 1 1 2 11 16 11 13 12 9 9 7 8 7 5 4 1 5 10 15 20 23 26 26 26 27 30 31 32 31 30 29 27 26 25 24 24 25 28
2 2 1 4 1 5 6 6 10 13 13 14 11 12 11 9 9 7 6 5 1 4 9 13 18 21 24 25 23 24 27 29 31 31 30 28 29 26 24 23 22 25 26 27
2 7 4 2 2 3 5 8 12 14 14 14 12 9 8 9 7 7 5 2 3 6 10 15 19 21 22 22 22 23 25 27 29 29 27 25 25 24 24 22 24 24 23 24
8 6 5 4 14 5 13 17 16 15 13 10 8 8 6 5 5 5 4 4 5 8 12 16 18 19 20 20 20 22 24 27 28 28 26 24 26 25 24 25 26 23 22 19
Wind_Direction
17 270 239 272 192 106 106 116 314 255 226 280 240 244 193 189 204 208 211 213 217 223 234 238 241 242 244 246 249 251 250 248 248 245 244 245 246 246 246 246 248 249 250 253
160 255 219 75 183 204 165 278 271 275 339 208 215 232 210 186 219 216 214 219 227 236 239 240 245 250 252 253 254 254 255 256 255 254 252 252 255 256 258 259 261 259 256 254
222 87 189 211 202 218 239 236 207 177 108 167 222 182 204 216 231 227 226 227 233 236 241 245 248 249 252 253 252 255 257 260 260 257 256 257 256 259 263 262 262 259 259 257
248 247 220 206 243 205 284 224 219 162 188 144 328 84 242 227 248 237 235 231 235 237 241 248 247 247 249 253 255 252 252 254 257 258 257 261 266 267 271 273 271 269 268 269
18 301 257 239 240 181 323 81 155 135 137 214 170 245 146 236 236 242 238 236 239 238 237 241 244 244 248 254 254 253 248 248 249 253 255 257 257 260 264 265 266 265 264 263
276 249 250 248 275 214 151 101 92 98 186 256 7 252 125 196 244 249 237 239 247 241 247 251 254 251 249 253 256 256 255 255 257 259 260 260 264 265 266 268 267 268 268 266
323 238 252 226 253 184 216 205 153 171 181 30 338 208 295 312 311 278 287 279 287 271 262 268 270 267 266 261 265 266 269 265 262 262 266 267 267 270 270 270 272 272 271 269
284 214 192 178 228 202 187 230 229 249 224 68 146 210 162 346 336 343 342 19 19 14 324 295 324 333 317 301 289 282 280 280 276 275 273 275 276 276 277 277 277 277 277 276
187 267 266 229 250 213 161 195 31 104 50 254 200 239 255 253 54 33 48 61 54 62 67 74 80 72 64 51 18 333 312 300 294 287 285 286 286 283 283 285 286 284 283 284
186 264 204 158 139 51 258 132 141 83 168 208 173 279 207 353 357 17 58 68 66 68 70 74 77 74 71 66 58 51 45 39 30 21 3 342 328 311 300 291 292 292 292 289
152 227 154 239 201 175 140 166 69 105 310 215 186 212 194 293 337 63 65 71 75 76 76 74 72 66 56 47 39 37 37 36 29 9 357 349 336 325 320 315 303 294 293 290
196 212 252 231 85 1 85 149 171 209 177 67 304 165 350 360 118 113 92 78 77 78 78 71 63 57 52 49 44 38 32 25 18 10 2 356 350 342 323 310 301 296 296 295
175 237 240 151 147 110 197 132 123 109 137 175 223 126 112 131 116 107 103 88 81 75 68 64 60 61 57 49 38 28 18 8 1 354 346 342 335 324 316 313 312 311 314 312
163 214 178 88 10 60 219 149 156 287 179 156 227 165 178 157 128 117 110 92 82 78 74 71 69 63 52 41 27 10 1 359 357 351 346 342 336 325 319 314 310 308 308 307
210 213 96 287 262 201 51 105 179 209 49 238 43 199 178 164 149 132 120 105 97 91 86 81 73 57 42 21 11 4 1 353 351 342 343 337 330 330 330 323 319 315 312 310
151 352 58 280 14 134 118 103 113 118 142 94 149 175 170 150 143 147 147 139 122 111 104 88 68 38 20 10 1 355 347 337 329 329 331 328 321 313 312 309 309 310 312 311
134 127 163 324 18 346 264 335 320 103 182 155 179 158 150 150 167 168 164 167 154 142 130 105 36 15 2 347 343 333 321 314 312 318 321 320 314 311 309 303 302 303 304 304
125 155 199 252 221 215 67 280 224 222 176 178 136 154 160 159 156 163 177 184 172 173 167 37 357 341 332 330 327 322 319 319 315 317 320 322 324 324 320 313 310 307 305 303
130 144 140 198 205 278 193 183 152 195 134 173 153 144 136 132 132 169 184 176 182 177 197 317 314 320 321 321 320 321 323 322 323 327 329 331 330 326 319 315 313 311 308 306
113 64 218 173 173 195 99 129 197 170 256 166 163 158 153 151 192 175 182 179 172 192 263 295 315 319 319 322 323 323 324 326 329 334 337 337 334 332 330 320 314 313 310 310
136 106 199 174 156 163 128 136 196 221 27 156 157 157 158 178 82 148 165 172 203 239 276 304 316 329 329 325 324 324 327 329 332 333 334 334 331 328 328 325 323 320 318 315
200 159 154 150 148 197 145 161 233 98 122 140 141 151 161 154 138 144 171 196 222 253 299 331 334 333 329 326 327 329 330 329 332 333 337 338 342 341 335 328 328 330 333 329
261 313 189 223 77 314 285 304 195 149 141 144 143 151 153 147 154 176 197 215 229 270 332 332 333 332 328 327 330 331 331 331 332 334 337 341 341 341 341 341 340 340 341 340
146 241 121 187 122 84 124 138 135 137 138 143 155 166 168 173 179 190 203 195 211 325 330 332 333 330 328 330 333 333 334 334 334 337 340 341 341 350 357 357 349 344 346 347
121 165 145 90 175 155 180 161 150 144 150 156 161 170 177 180 189 189 179 203 287 312 327 332 331 330 331 337 339 339 340 339 339 341 343 343 348 354 353 353 348 349 342 337
187 172 198 237 189 167 181 169 165 162 164 164 164 162 171 172 171 176 211 245 288 319 326 327 328 332 335 342 344 347 349 347 345 343 345 348 353 352 349 346 344 351 349 352